Tracking 24266 objects as of 9-Dec-2021
HD Live streaming from Space Station
objects crossing your sky now

TABLETSAT AURORA

Track TABLETSAT AURORA now!
10-day predictions
TABLETSAT AURORA is classified as:


NORAD ID: 40017
Int'l Code: 2014-033H
Perigee: 576.7 km
Apogee: 607.7 km
Inclination: 98.1 °
Period: 96.4 minutes
Semi major axis: 6963 km
RCS: Unknown
Launch date: June 19, 2014
Source: Commonwealth of Independent States (former USSR) (CIS)
Launch site: Orenburg, Russia (OREN)

Uplink (MHz):
Downlink (MHz): 435.550/436.100
Beacon (MHz): 437.050
Mode: 9600bps GMSK D-STAR
Call sign:
Status: Inactive

aabbcc
Your satellite tracking list
Your tracking list is empty




NASA's NSSDC Master Catalog

Two Line Element Set (TLE):
1 40017U 14033H   21342.87391983  .00000935  00000-0  92951-4 0  9990
2 40017  98.0987 313.3687 0022261 325.1031  34.8743 14.94124646407106
Source of the keplerian elements: AFSPC